Theta_e
283 278 276 275 276 278 279 280 280 280 280 279 278 278 277 277 279 281 282 285 286 282 280 279 279 279 280 280 281 283 284 284 284 284 284 285 285 286 286 287 287 288 288 290 290 291 291 291 291 291 291 291 291 291 291 292 292 292 292 292 291 293 294 294 294 294 295 294 296 297 297 298 299 301 302 303 307 307 308 310 313 315 317 320 324 325
283 278 276 278 279 279 279 280 280 280 280 279 278 277 277 277 276 281 281 285 286 280 280 281 281 280 279 280 281 283 284 283 283 283 284 284 285 285 286 286 286 287 289 289 289 290 290 290 290 291 290 291 289 290 291 290 291 291 291 291 291 292 292 293 293 294 294 295 295 295 296 297 298 298 298 298 301 302 304 305 308 310 311 314 317 321
278 275 278 280 281 280 280 280 280 280 278 278 277 277 277 277 278 281 282 285 286 283 279 281 280 280 281 281 281 282 282 282 283 284 284 284 284 285 286 286 286 287 287 288 288 289 289 289 290 290 290 289 290 290 289 290 290 291 291 290 291 291 291 292 293 293 293 294 295 294 294 296 296 297 298 298 299 300 300 302 304 306 309 311 313 315
274 277 280 282 280 278 279 279 279 278 278 277 278 276 274 277 277 276 280 283 284 282 280 281 280 280 282 282 281 281 281 281 282 283 283 284 284 285 285 285 286 286 286 287 287 287 288 289 289 289 289 289 289 289 289 289 289 290 291 290 290 290 291 291 292 294 293 294 294 294 294 294 295 294 296 296 297 297 298 299 301 302 305 308 310 312
275 279 282 280 278 278 277 278 278 277 275 276 277 276 275 276 276 277 277 281 281 284 283 280 277 278 280 279 279 281 281 281 282 283 283 284 284 284 285 285 286 286 286 286 287 287 287 288 288 288 289 288 288 288 288 289 289 289 289 289 289 290 290 291 292 291 292 292 291 292 292 293 292 292 292 292 293 294 297 297 298 299 301 303 306 309
277 281 281 278 277 277 277 276 276 277 274 274 277 277 277 277 276 277 278 278 275 276 279 280 271 273 276 279 279 280 278 279 279 280 281 282 283 283 284 284 285 286 286 286 286 287 287 287 287 288 288 288 288 288 288 288 289 289 289 289 289 289 290 290 291 291 291 290 290 289 288 288 288 288 289 289 290 292 293 294 297 298 300 301 302 303
279 280 279 277 276 276 276 275 276 277 274 272 276 278 278 277 277 277 278 277 274 273 278 277 271 266 276 279 281 280 276 277 278 278 280 281 282 282 283 284 284 285 285 286 286 286 286 286 286 287 287 287 287 287 288 288 288 288 289 289 288 288 289 290 290 290 291 289 289 288 288 288 288 288 289 290 291 292 294 295 295 296 298 299 299 301
278 279 279 278 277 276 275 274 276 277 273 273 277 278 278 277 277 277 278 278 277 277 279 276 275 269 273 276 279 279 276 275 276 277 278 280 281 282 282 283 283 284 284 285 285 285 286 286 285 286 286 287 287 287 287 287 288 287 287 288 288 288 289 289 289 289 289 289 288 287 287 289 288 288 288 289 290 292 293 293 293 294 295 296 298 299
278 278 278 277 276 276 274 276 278 278 276 276 279 279 277 276 277 277 277 277 277 275 269 273 275 274 270 274 276 276 274 274 275 276 277 279 280 281 282 283 283 284 284 284 284 285 285 286 286 286 286 286 286 287 287 287 287 287 287 288 287 287 287 288 288 289 288 289 288 287 287 287 288 289 289 290 290 290 291 291 292 292 293 294 296 297
280 281 280 279 276 275 277 278 277 278 276 277 279 279 278 278 278 278 276 277 276 265 264 272 274 265 269 273 275 275 273 274 275 276 278 279 280 281 282 283 283 283 283 284 285 285 285 286 286 286 286 286 286 286 287 286 286 286 286 287 286 286 287 287 287 288 287 287 288 287 286 286 286 288 288 288 288 288 289 289 290 291 292 292 293 295
279 284 287 279 278 279 278 278 278 278 279 281 278 276 276 274 274 276 274 275 267 260 268 273 273 273 267 273 275 274 275 275 275 275 276 278 280 281 282 282 283 283 283 283 283 285 285 285 286 285 285 285 285 285 285 285 285 285 286 285 285 285 286 286 287 287 287 287 287 286 286 286 286 286 286 286 286 287 288 288 289 290 291 292 292 293
278 278 279 280 284 280 279 277 279 279 278 278 276 274 274 274 272 269 265 265 262 258 267 272 273 275 264 270 276 276 276 276 276 277 277 279 280 281 281 282 282 282 283 283 283 284 284 284 285 285 285 285 285 285 284 284 285 285 285 285 284 285 285 286 286 286 286 286 286 286 286 286 286 286 286 285 285 286 287 288 288 289 290 290 291 292
277 277 278 279 285 280 277 274 275 278 279 278 275 274 268 262 261 266 259 262 256 263 271 272 274 270 272 272 278 278 278 278 276 278 279 279 280 281 282 282 282 282 282 282 282 283 283 283 284 284 284 285 284 284 284 284 285 284 285 284 284 284 284 285 285 285 285 285 285 286 285 285 287 286 286 285 285 286 287 287 287 288 288 289 289 290
270 276 277 279 278 282 278 273 273 274 277 276 274 270 262 258 252 255 251 256 257 266 271 272 273 270 272 275 277 278 278 278 279 278 279 280 281 282 281 281 281 281 281 282 282 282 281 282 283 284 284 284 284 284 284 284 285 284 284 284 284 284 284 284 285 285 285 285 285 285 285 285 286 285 286 285 285 286 286 287 287 287 288 288 289 289
263 264 273 277 275 279 278 276 276 275 274 274 276 273 268 256 259 259 256 261 260 263 268 271 267 262 268 275 279 279 279 279 278 278 278 280 279 279 280 280 280 280 280 280 281 282 282 283 283 283 284 283 284 284 284 284 284 284 284 284 284 284 284 284 284 284 284 285 285 285 285 285 285 286 286 285 286 286 286 286 286 287 288 288 288 289
271 268 274 278 279 278 277 279 279 277 272 273 275 273 267 267 266 262 256 259 256 260 263 261 267 271 275 279 280 279 278 276 277 277 278 278 279 278 279 280 280 280 281 281 281 282 282 282 282 283 283 283 283 283 283 284 284 283 284 284 284 283 284 284 285 284 284 284 285 285 284 285 286 287 286 285 286 286 286 286 286 286 287 288 289 289
267 266 276 277 279 277 277 279 280 279 267 275 272 266 272 275 271 264 261 263 261 258 261 263 269 273 273 279 280 277 276 276 275 276 276 277 277 277 278 279 279 280 280 280 282 282 282 282 282 282 282 283 283 283 283 283 284 283 283 284 283 283 284 284 284 284 284 284 284 284 284 285 284 284 284 284 284 285 286 286 286 286 286 287 288 289
266 269 275 276 277 279 279 278 279 279 278 273 267 273 276 274 271 266 261 256 252 257 258 265 266 269 269 266 277 274 273 275 274 275 275 275 276 277 278 279 279 280 280 280 281 281 282 282 282 282 282 282 282 282 282 283 283 283 283 283 282 283 283 284 284 284 284 284 284 284 284 284 284 284 284 284 284 285 285 285 285 286 286 286 287 288
274 264 270 276 276 277 278 277 278 278 279 278 276 278 273 260 264 260 259 255 255 255 256 262 266 268 271 271 275 274 273 274 274 274 274 276 277 277 278 279 279 280 280 281 281 281 282 281 282 281 281 282 282 283 282 283 283 283 282 282 283 283 283 283 284 284 284 284 284 285 285 284 284 284 284 285 285 285 285 284 285 285 285 286 286 287
271 265 269 276 276 275 276 272 266 273 277 272 277 275 275 268 262 259 261 258 258 255 257 259 259 265 272 272 273 273 273 275 274 274 274 276 276 277 278 279 279 279 279 280 280 281 281 281 281 281 281 281 282 282 282 282 282 282 282 282 282 283 283 283 283 283 283 284 284 284 284 284 284 284 284 284 284 284 284 284 285 285 285 285 286 286
270 268 262 271 272 274 267 269 271 275 272 273 272 267 266 267 271 269 264 262 261 254 253 254 258 262 271 274 274 274 274 276 275 275 276 276 277 278 278 279 278 279 279 279 280 280 280 281 281 281 281 281 281 281 282 282 281 281 281 281 282 282 282 282 283 283 283 283 283 284 283 283 284 284 284 284 284 284 284 284 285 285 285 286 285 286
264 262 265 265 269 266 270 276 277 275 275 273 272 271 271 267 262 262 263 266 261 261 257 256 262 267 273 277 276 275 275 276 276 276 276 277 278 278 279 278 278 278 278 279 280 279 280 280 280 280 280 280 281 281 280 281 280 280 281 281 281 282 282 282 283 283 283 283 284 283 283 283 283 284 284 283 283 284 284 284 284 284 285 284 285 286
273 262 263 265 266 272 275 276 277 276 273 274 274 272 272 268 264 256 257 256 260 263 261 257 258 263 274 275 276 276 276 276 276 277 278 278 278 279 279 278 278 278 278 280 279 280 279 279 279 279 280 280 281 280 279 279 280 280 280 281 282 282 282 283 283 283 284 284 283 283 283 283 283 283 283 283 283 283 283 284 284 284 284 284 285 285
281 262 264 266 267 270 273 271 271 275 275 270 266 268 270 269 269 266 262 260 260 259 260 258 259 265 273 276 276 276 276 277 278 277 277 278 279 279 277 277 278 278 279 279 279 279 279 278 279 280 280 281 280 278 278 279 280 280 281 281 282 281 282 282 283 283 283 282 282 282 282 282 282 282 282 282 283 283 283 283 284 284 284 284 285 284
266 266 267 259 256 261 260 265 268 270 269 267 270 272 273 271 268 264 260 257 262 261 266 259 259 261 272 276 276 276 278 277 277 278 278 277 278 277 277 277 278 278 279 279 278 278 278 279 279 280 280 280 280 278 279 279 280 280 281 281 281 281 282 282 283 282 282 282 281 281 281 281 282 281 282 282 282 282 283 283 283 284 284 284 284 284
267 266 264 260 259 259 259 257 259 258 264 272 272 271 272 271 268 267 261 258 259 260 263 257 261 270 273 275 276 277 277 276 276 278 279 278 276 276 278 278 278 278 279 278 277 277 278 278 279 279 279 279 279 279 279 280 280 281 281 281 281 281 281 282 282 281 281 281 280 281 280 281 281 281 281 281 282 282 282 283 283 283 284 284 283 284
264 266 265 262 261 264 266 264 265 273 269 267 270 270 271 273 273 270 266 264 264 264 262 265 267 270 272 274 274 275 275 275 276 277 277 277 276 277 277 277 278 278 278 277 277 278 278 278 278 279 279 279 278 279 280 280 280 280 280 280 280 281 281 281 281 281 280 280 280 280 280 280 280 281 281 281 281 282 282 282 282 283 283 283 283 283
265 264 265 266 266 269 269 267 268 272 267 269 269 270 272 271 270 268 264 265 268 262 263 268 271 268 270 273 274 275 276 276 277 277 276 276 277 278 278 277 280 278 277 277 277 277 277 278 278 278 278 278 279 279 279 279 279 279 279 279 280 281 281 281 280 280 279 279 279 280 280 280 280 280 281 281 282 282 282 282 282 282 283 283 282 283
262 264 264 266 264 268 270 270 271 268 269 270 270 270 269 270 270 267 267 270 270 265 264 269 270 269 271 273 275 275 276 276 276 276 276 277 277 277 276 276 276 276 276 277 277 277 277 277 277 278 278 278 278 278 278 278 278 279 279 280 280 280 280 280 280 279 279 279 279 279 280 280 280 281 281 281 281 281 282 282 282 282 282 282 282 283
268 262 265 268 266 268 270 271 271 270 268 269 269 270 271 269 269 270 269 270 270 268 270 270 270 270 273 274 275 276 278 277 277 276 276 276 276 276 275 275 275 276 276 276 277 277 277 277 277 277 277 277 277 277 277 278 278 278 279 279 279 279 280 279 279 279 279 279 279 279 280 280 280 280 280 281 281 281 281 281 281 282 282 282 282 282
269 263 274 268 267 268 270 270 270 269 266 266 269 270 270 270 270 271 270 271 271 269 270 270 269 269 274 276 276 277 276 275 275 275 276 276 276 276 275 275 275 276 276 276 276 277 277 277 277 277 277 277 277 277 277 277 278 278 278 279 279 279 279 279 280 279 278 278 279 279 279 279 279 280 280 280 280 280 281 281 281 281 281 281 281 282
272 265 267 268 267 268 270 267 267 263 264 265 267 268 268 268 264 267 267 271 268 268 269 269 267 269 274 275 275 275 275 275 275 275 276 276 276 276 275 275 276 276 276 276 276 276 276 276 276 276 276 276 277 277 277 277 278 278 278 278 279 279 280 280 279 278 278 278 278 279 279 279 279 279 279 280 280 280 280 281 281 281 281 281 281 281
274 269 266 267 267 266 270 269 266 267 267 264 264 266 269 269 269 270 271 272 272 271 267 266 268 274 275 276 275 275 275 275 275 275 275 276 276 276 275 276 276 276 276 275 275 276 276 276 276 276 276 276 277 277 277 278 277 277 278 278 279 280 280 279 279 278 278 278 278 278 278 279 279 279 279 279 279 280 280 280 280 280 280 280 281 281
274 272 271 273 266 266 269 268 268 266 261 262 270 273 272 270 270 269 270 272 273 273 272 274 274 276 276 275 274 275 275 276 276 276 277 277 276 276 276 276 276 276 275 275 276 276 276 276 276 277 276 276 276 277 278 278 278 278 279 279 279 279 279 278 278 278 277 277 277 278 278 278 278 278 278 279 279 279 279 279 279 280 280 280 281 281
271 272 271 273 268 266 268 269 265 260 262 271 275 275 274 274 272 272 273 274 275 275 275 274 275 275 276 276 276 276 277 277 277 276 277 278 277 276 276 276 275 275 275 275 275 275 276 276 276 276 276 276 277 277 277 277 278 278 279 279 279 279 278 278 278 277 277 277 277 277 277 278 278 278 278 278 278 278 278 278 279 279 280 281 281 281
269 271 272 272 270 270 266 266 260 261 266 272 274 276 277 275 274 272 271 273 274 274 275 273 275 275 276 276 277 277 277 277 277 277 277 278 278 277 276 276 275 275 275 275 275 276 275 275 275 275 275 277 277 277 277 277 278 278 278 279 278 278 278 278 277 277 277 276 276 277 277 277 277 277 277 277 277 277 278 278 278 278 280 281 281 282
275 271 272 268 272 264 265 264 265 269 270 271 270 272 271 271 272 270 267 271 275 275 274 274 275 276 276 276 277 277 277 276 275 276 278 278 278 278 277 276 275 275 275 276 276 276 276 276 276 276 276 276 277 277 277 278 278 278 277 277 277 277 277 277 276 276 276 276 276 276 277 277 277 277 276 276 276 276 276 275 276 276 277 277 279 280
277 272 274 269 269 270 265 263 265 264 261 265 271 273 275 275 274 274 271 270 276 275 276 275 275 275 276 276 276 277 277 274 273 275 278 277 277 277 276 275 275 276 276 276 276 277 277 277 276 276 276 276 276 277 277 277 277 277 276 276 277 276 276 276 276 276 276 276 276 276 276 277 276 276 276 275 275 275 275 276 276 276 276 276 276 277
275 275 274 272 269 267 266 263 263 260 264 270 272 274 275 274 274 274 268 267 275 276 276 275 274 275 276 275 276 276 274 271 272 276 279 277 275 274 274 275 275 276 276 276 276 276 276 276 276 276 276 276 276 277 277 277 277 276 275 276 276 276 275 275 275 276 276 276 276 276 276 276 276 276 275 275 275 275 275 276 275 275 276 275 276 277
267 269 272 270 268 269 267 265 263 267 266 269 272 273 274 274 275 273 263 264 275 275 276 276 275 275 276 276 276 275 273 270 273 276 280 276 275 275 275 275 275 275 276 277 276 277 277 277 275 275 275 275 276 277 277 276 276 275 275 275 276 275 275 275 276 276 276 276 276 276 276 276 275 275 275 274 275 276 276 276 275 275 275 275 276 277
264 266 270 267 269 269 270 267 269 269 274 277 276 278 277 276 273 262 261 270 276 275 275 275 275 276 276 276 276 274 277 278 279 280 280 276 274 274 275 275 276 276 275 276 276 278 276 276 275 275 275 276 277 277 276 276 275 275 275 275 275 274 275 276 276 276 276 276 276 275 275 275 275 274 274 275 276 276 276 275 274 274 274 275 276 277
265 261 265 269 268 267 268 266 267 270 276 278 278 278 276 272 261 263 273 275 276 275 275 275 275 276 276 276 277 278 279 280 280 280 277 276 275 275 275 275 275 275 275 276 277 277 275 275 275 275 276 276 277 276 276 275 275 274 275 274 274 275 276 276 275 275 275 275 275 275 274 274 274 274 275 275 276 275 274 274 274 274 274 275 276 276
267 263 263 265 268 269 268 265 265 261 272 278 276 272 274 267 270 276 276 276 276 276 277 277 277 278 278 277 278 278 278 278 278 278 277 276 275 275 274 274 275 275 275 275 275 276 276 275 275 275 275 276 276 276 276 275 274 274 274 274 274 276 276 275 275 275 275 275 274 274 273 273 273 273 274 275 275 274 273 273 273 274 274 275 275 276
273 267 266 266 270 263 266 264 265 272 275 274 275 270 272 276 279 279 277 277 279 279 278 278 279 279 279 277 277 277 278 278 277 276 275 275 275 275 274 275 275 276 275 275 275 275 275 275 275 275 275 276 276 276 275 275 274 274 274 274 275 276 275 275 275 274 274 273 273 273 272 272 272 273 274 274 274 273 271 272 273 274 275 276 276 275
276 272 272 267 270 269 266 270 276 276 276 277 276 278 279 279 279 278 278 278 278 279 280 279 279 280 280 279 278 278 277 277 277 277 276 276 276 275 274 275 275 274 273 273 274 275 275 275 275 275 274 275 275 275 275 275 274 273 273 274 275 275 274 274 274 273 272 272 272 272 272 272 272 273 274 273 272 271 271 272 274 273 273 273 273 273
277 278 277 275 274 278 278 278 279 279 279 279 281 281 279 280 281 280 279 278 279 280 280 279 280 280 280 280 279 278 278 278 277 277 278 276 273 274 275 275 275 274 273 273 274 275 275 275 275 274 274 274 275 275 275 275 274 273 273 275 275 275 274 273 272 271 271 271 271 271 271 271 272 273 273 272 271 271 272 272 272 271 272 272 273 274
278 277 275 272 276 273 270 278 278 278 279 280 280 281 281 280 280 280 280 280 280 280 280 281 280 280 280 280 279 278 278 279 278 279 277 274 273 274 274 274 274 274 274 274 275 275 275 274 274 273 273 273 274 274 274 274 274 274 274 274 274 274 273 271 271 270 270 270 270 270 270 270 271 272 271 270 270 270 271 271 272 272 272 272 273 274
271 277 274 275 274 273 273 277 278 279 280 279 279 279 279 280 281 281 281 281 281 281 280 280 280 279 280 278 278 278 278 278 277 277 275 275 275 275 275 275 275 274 275 275 275 275 274 274 273 273 272 272 273 274 274 274 273 274 274 274 273 272 271 270 270 270 270 270 270 270 270 271 271 271 269 269 269 269 270 271 272 272 272 273 273 273
276 277 271 274 271 274 276 277 278 278 278 278 280 280 280 280 280 280 280 280 280 279 280 280 280 279 279 278 279 278 277 278 278 276 274 275 275 275 275 275 274 274 274 274 275 274 274 273 272 272 272 272 273 273 273 272 273 273 273 273 272 271 270 270 270 270 269 269 269 269 270 271 270 270 269 269 269 270 271 271 271 272 272 274 274 274
277 274 277 275 272 272 272 275 277 272 272 276 278 278 279 280 279 279 279 279 279 279 279 279 280 280 280 280 279 278 277 277 277 275 274 275 275 275 275 274 274 274 274 275 275 274 273 273 272 271 271 272 273 272 272 272 272 273 273 272 271 271 269 269 269 269 268 269 269 270 270 270 270 269 269 269 269 269 269 272 273 273 272 273 276 277
276 277 276 273 272 271 276 278 278 278 277 278 279 280 281 281 280 279 279 280 280 281 280 280 279 279 280 280 280 279 277 277 275 275 274 275 275 275 274 274 273 273 274 274 273 273 272 272 272 271 271 271 272 272 271 271 271 272 272 271 271 270 269 269 268 268 269 269 269 270 270 270 269 269 269 269 268 268 268 268 271 274 276 276 275 275
Wind_Speed
5 17 13 8 7 7 7 6 3 4 3 4 4 6 7 6 3 2 4 5 1 9 7 5 7 8 6 6 5 4 5 12 11 12 10 10 10 11 11 11 10 12 10 7 9 10 11 12 13 12 12 13 14 16 16 16 16 16 15 16 17 14 14 14 15 14 13 16 15 13 14 13 12 12 12 12 12 13 13 15 14 14 14 17 15 11
2 21 12 6 6 7 5 4 2 5 7 7 7 7 9 8 5 3 3 7 8 5 1 2 8 5 4 4 4 3 13 12 9 9 10 10 9 9 10 11 10 4 3 6 11 13 12 13 14 13 13 15 18 17 16 17 15 14 16 17 15 14 14 15 14 11 11 11 10 11 12 12 11 13 12 14 12 13 12 15 15 15 16 17 17 16
18 10 8 9 7 5 2 5 5 7 8 9 8 4 7 9 4 6 2 9 5 5 2 1 8 3 3 3 4 8 9 5 5 7 6 8 9 9 9 8 8 8 8 9 9 10 11 12 13 12 13 12 12 12 14 14 16 16 16 15 15 13 13 13 14 13 13 11 11 11 11 12 11 7 9 9 9 10 12 13 15 15 15 16 17 19
13 11 9 8 6 4 7 9 9 5 7 9 10 8 3 2 5 4 6 8 10 1 3 1 8 3 3 3 5 5 5 4 5 6 6 6 9 9 7 6 6 7 8 10 10 10 10 10 10 11 12 12 12 13 14 15 16 14 15 15 15 14 13 13 13 13 12 13 11 9 10 10 9 10 9 8 7 14 17 17 14 15 15 15 15 16
7 2 4 4 6 6 6 11 13 8 7 4 5 3 1 3 2 2 4 6 4 3 3 2 3 2 4 3 5 4 4 6 6 7 7 7 6 4 4 5 5 6 6 6 6 8 9 10 11 10 9 10 11 12 13 13 14 11 14 14 14 13 13 12 14 15 13 12 12 13 13 12 13 12 15 17 17 15 13 13 15 16 16 17 14 13
5 1 2 7 8 10 9 11 10 6 6 5 1 3 1 2 3 2 5 2 3 1 3 1 1 2 2 2 1 3 4 6 4 6 6 5 5 4 6 5 5 5 4 4 5 5 5 5 6 8 9 9 10 11 10 10 11 11 12 13 14 13 12 13 14 15 13 13 14 16 17 19 17 16 16 17 17 18 17 16 15 14 14 14 15 16
2 2 6 4 4 5 4 4 3 5 3 3 3 3 2 2 1 1 4 3 2 3 1 2 4 1 1 1 1 1 4 6 4 5 4 4 4 4 5 4 4 4 4 4 4 4 5 5 5 7 7 7 9 8 7 7 8 10 10 11 12 11 11 12 13 14 13 13 12 14 13 12 12 12 10 11 10 11 12 13 15 15 13 13 15 15
3 6 7 6 8 6 6 9 4 5 2 1 1 4 3 0 1 2 1 2 1 1 2 5 2 2 1 1 0 1 5 4 4 4 4 3 4 4 4 4 4 4 4 4 4 4 4 4 4 5 5 6 6 5 6 6 7 9 10 10 11 10 11 11 12 13 13 12 12 13 13 12 12 11 12 14 12 11 11 13 14 13 13 15 15 13
3 5 5 9 7 7 7 2 8 1 1 4 5 6 7 3 3 3 4 3 1 2 1 7 5 3 1 2 1 3 3 4 4 3 3 3 3 3 3 3 4 4 4 4 4 4 5 6 5 4 5 4 4 5 6 6 6 6 7 8 9 10 9 10 12 12 13 12 12 11 11 13 10 12 12 12 11 12 12 14 14 15 16 16 15 14
1 2 1 3 5 7 5 5 2 2 6 5 6 5 2 1 1 3 2 1 2 2 2 4 5 1 4 2 2 2 3 1 1 1 1 1 1 1 2 3 3 3 4 4 4 4 4 5 5 4 4 5 5 4 4 5 4 5 5 7 9 10 9 9 11 11 12 12 12 12 13 14 14 12 12 12 14 13 12 13 15 14 14 13 14 16
3 5 2 4 3 3 4 5 1 1 3 10 3 1 1 5 4 2 6 2 3 1 2 1 4 1 1 2 4 3 2 2 1 2 2 2 2 2 1 1 2 2 3 3 4 4 4 4 4 4 5 5 5 4 4 4 4 4 5 5 7 8 8 9 10 10 10 10 10 10 13 14 15 16 14 14 15 15 15 16 15 14 12 13 15 14
5 3 3 3 1 4 1 3 0 1 4 5 4 2 2 1 8 3 5 3 2 2 4 2 4 1 2 1 3 4 1 2 3 1 1 0 1 1 1 2 2 2 3 3 4 4 4 5 5 5 6 5 6 5 5 4 4 4 4 4 5 7 6 6 8 9 9 9 9 8 10 12 12 13 13 14 14 14 15 16 16 13 13 14 12 12
1 3 3 6 3 9 5 3 4 5 9 10 4 8 5 3 5 2 7 2 0 1 2 1 4 2 3 2 4 4 2 2 4 2 1 1 1 0 2 2 2 3 3 3 4 4 4 4 5 5 5 6 5 5 6 7 6 5 5 6 6 8 6 6 6 6 7 8 8 9 9 9 10 12 12 12 13 12 11 12 13 14 14 14 14 13
2 3 6 6 4 2 3 6 7 7 10 11 8 4 4 2 3 1 4 1 5 6 4 2 3 2 1 1 3 5 4 3 1 2 1 1 1 0 3 3 4 3 3 3 3 3 4 4 4 5 5 6 6 6 8 7 7 6 7 6 7 8 7 6 6 6 6 6 7 7 8 9 9 10 11 11 11 12 10 10 11 12 13 12 14 16
5 3 5 5 3 5 4 3 1 2 3 2 2 1 2 4 1 2 2 2 3 5 8 4 0 2 1 3 4 6 5 1 1 2 2 0 1 3 4 5 5 4 4 3 4 4 4 5 5 5 5 5 5 6 7 7 7 6 8 8 9 10 9 8 8 7 8 7 7 6 7 8 8 9 10 10 10 11 12 11 12 11 11 12 13 13
2 5 5 3 4 2 4 3 1 2 1 2 3 4 5 1 2 1 3 2 2 4 6 2 2 1 1 1 2 1 2 3 3 4 4 3 3 4 5 5 6 4 4 4 4 5 6 5 5 5 5 5 5 6 6 7 7 6 7 7 8 9 10 10 11 10 10 10 8 7 8 9 9 9 9 9 9 10 10 11 12 12 11 12 12 13
3 1 1 7 3 3 4 2 2 1 0 1 2 1 2 3 3 1 1 1 1 3 6 1 7 2 4 1 1 1 3 4 4 3 3 3 4 4 5 5 6 6 5 5 5 6 7 7 7 6 6 5 6 6 7 8 7 7 8 10 10 9 10 13 12 13 12 11 10 11 9 9 10 10 11 11 12 13 11 11 11 11 12 12 11 12
1 9 4 1 1 1 1 1 1 2 1 1 3 2 1 2 3 3 1 4 4 1 6 1 3 5 2 2 1 3 2 4 4 3 4 4 5 6 6 6 6 7 5 5 6 6 5 6 7 7 6 6 6 7 7 9 8 7 8 9 7 9 13 14 13 13 13 14 13 13 12 12 11 11 11 11 12 12 12 11 11 11 12 12 12 12
0 4 2 1 2 7 6 2 1 1 3 2 1 1 1 1 1 3 2 2 3 4 6 6 2 5 6 6 4 1 1 3 4 3 4 5 5 6 6 7 7 6 4 6 5 5 6 6 6 6 7 7 8 7 7 7 7 7 7 5 5 9 11 11 11 12 13 13 12 11 13 14 13 12 11 11 11 11 12 13 13 13 13 13 13 13
1 0 6 1 1 3 3 3 0 6 6 1 1 1 1 2 1 1 1 3 5 4 5 8 3 4 5 4 8 2 4 0 3 4 4 5 4 5 5 5 6 5 4 5 5 5 5 6 7 7 8 8 8 8 8 8 7 7 8 7 9 10 11 12 13 13 13 14 13 14 14 14 14 13 13 12 12 12 13 13 13 14 14 14 13 13
1 1 2 4 4 1 1 2 1 2 3 5 6 3 3 2 1 3 0 2 2 2 3 3 8 5 6 5 5 3 5 1 2 5 5 5 5 5 5 5 4 4 4 4 4 5 6 7 7 8 7 7 7 6 6 6 6 7 7 8 9 11 12 13 14 13 13 13 15 16 17 17 15 16 14 14 14 13 12 12 13 13 13 13 13 14
1 1 3 6 7 2 2 1 0 3 1 1 2 2 3 1 1 1 5 1 1 2 3 1 12 6 6 2 5 6 4 2 3 4 5 6 7 7 5 4 4 3 4 4 6 5 6 6 7 7 7 6 6 7 6 5 6 8 9 10 10 11 13 15 16 15 15 14 14 15 16 17 15 15 15 16 16 15 14 13 13 14 13 14 14 13
2 2 2 5 4 7 7 8 2 2 2 1 4 1 1 2 4 5 1 4 2 2 2 1 2 10 6 1 1 2 1 3 4 6 10 9 8 8 6 4 4 4 5 7 7 7 6 6 6 6 6 8 8 6 4 5 6 8 10 11 12 14 16 17 17 15 15 14 15 15 15 15 15 15 16 17 16 15 15 14 15 14 14 14 14 13
5 1 1 5 6 5 5 2 1 3 2 3 2 1 2 1 1 4 3 3 3 2 1 1 4 10 5 1 1 2 2 4 8 7 9 10 8 8 5 5 6 6 6 7 7 6 7 6 6 8 10 10 9 6 6 7 8 10 11 13 14 17 20 19 16 14 13 14 15 16 15 15 15 16 16 16 15 16 16 16 15 14 14 13 13 15
1 2 3 3 5 7 3 3 2 2 5 2 2 2 1 3 3 1 3 1 1 8 10 6 10 7 3 1 3 3 10 13 10 8 7 11 9 5 5 5 5 6 7 8 8 8 8 8 9 9 10 10 10 6 7 9 10 12 14 15 17 18 19 17 15 14 15 15 15 15 15 16 16 16 17 17 16 17 18 17 16 14 14 14 14 15
2 2 2 1 2 5 6 3 3 2 4 7 1 1 1 1 3 6 2 0 3 3 6 5 10 8 2 5 9 12 12 10 7 9 9 6 7 6 6 6 6 7 8 8 9 9 9 8 8 9 10 10 9 8 9 11 12 14 16 18 17 18 19 17 15 14 14 13 13 14 16 16 15 16 17 17 17 18 17 17 16 15 13 13 15 15
1 0 2 4 6 7 7 2 2 2 4 4 12 6 8 5 4 4 3 3 10 3 6 12 9 20 18 16 12 10 5 10 13 11 11 9 6 6 5 6 7 8 8 9 9 9 7 8 9 9 10 10 9 8 10 12 15 16 17 19 18 18 18 16 14 13 13 13 13 14 15 15 16 16 16 16 16 16 16 17 16 15 15 14 14 14
1 1 4 5 6 8 5 6 4 2 4 7 12 15 6 5 4 6 7 10 5 2 16 8 17 16 20 13 11 12 12 11 11 11 11 7 6 7 7 7 9 8 8 8 8 9 9 8 9 11 12 11 11 11 12 13 15 17 17 18 18 18 16 13 13 13 12 12 13 14 15 15 15 15 15 15 16 16 16 16 15 15 14 13 14 15
2 1 2 2 4 6 7 6 6 4 5 7 12 14 12 10 8 11 14 16 8 8 18 7 3 9 18 18 18 15 13 13 14 13 8 8 8 7 7 8 9 10 10 10 10 8 8 9 11 12 12 11 11 13 14 15 16 16 17 17 18 18 17 15 12 11 11 12 13 14 14 14 14 13 15 15 16 16 16 16 15 15 15 14 14 13
1 3 4 2 4 4 7 9 8 10 5 7 14 14 10 8 13 13 16 15 13 16 17 18 17 20 19 22 19 17 14 12 10 6 6 8 9 7 7 9 10 11 11 11 10 7 8 10 12 12 11 11 12 14 15 16 16 17 18 18 18 18 16 11 11 13 13 13 13 13 14 15 14 14 15 15 15 16 16 15 15 15 15 15 15 13
3 5 5 1 3 8 6 5 7 8 4 6 16 18 14 12 13 16 15 16 13 14 19 20 21 21 20 14 12 12 9 4 4 8 10 10 8 8 9 10 11 11 12 11 8 9 10 12 12 11 11 12 13 14 15 15 16 17 18 17 17 17 12 11 15 15 13 13 13 14 14 14 14 14 15 15 15 15 15 16 15 15 16 16 14 14
1 4 2 1 4 6 2 3 5 5 6 8 17 21 16 11 10 10 10 10 7 12 11 10 12 15 15 3 6 5 5 5 9 10 11 11 9 8 10 12 12 12 11 9 8 9 12 13 12 11 11 12 13 14 13 15 16 17 17 16 16 14 12 13 16 14 13 13 13 14 14 14 14 14 15 14 15 16 16 16 16 16 16 15 15 14
4 1 0 1 4 7 1 1 3 9 12 11 11 10 9 6 7 5 7 6 10 5 5 9 13 11 10 9 11 11 6 8 9 10 11 11 10 9 11 12 12 12 9 8 9 12 12 12 10 10 11 11 12 12 13 14 15 16 16 15 14 13 14 14 13 12 13 13 13 13 13 13 14 14 14 15 16 16 16 17 17 17 16 16 16 15
3 5 4 4 5 1 0 2 3 6 9 8 4 2 3 2 4 6 10 10 8 9 9 7 12 13 13 14 14 16 15 13 10 10 10 11 11 11 11 11 12 11 8 8 10 12 11 10 9 10 11 11 11 12 13 13 15 15 14 14 14 14 14 12 12 12 13 13 13 13 13 13 13 14 15 15 16 16 17 17 18 17 16 15 15 15
5 5 5 3 4 5 1 3 6 5 12 3 3 4 5 5 6 11 14 16 15 13 15 15 17 18 18 13 13 14 16 15 9 10 12 12 8 10 13 13 11 8 9 11 12 12 11 10 10 11 12 11 11 11 13 13 13 13 13 13 14 14 13 12 13 13 13 13 13 13 13 13 13 15 15 16 16 16 17 17 17 17 15 14 14 14
5 6 3 4 1 2 2 3 2 8 5 9 16 17 12 6 10 7 11 15 16 14 16 16 17 15 13 13 13 13 14 17 11 8 12 12 10 12 12 11 9 8 10 12 13 12 11 10 10 12 12 10 10 12 12 13 13 13 13 13 13 13 12 13 13 14 13 13 13 13 13 12 13 15 15 15 16 16 17 16 16 16 16 15 15 13
7 2 4 4 4 4 3 7 11 9 17 11 6 2 2 0 2 2 8 14 8 7 8 12 15 15 14 13 13 13 13 12 11 12 9 11 12 12 12 10 8 10 11 12 12 11 9 10 11 12 10 10 11 13 13 13 13 13 13 13 13 13 13 13 14 14 14 13 13 13 13 13 13 14 15 15 16 17 15 15 16 14 13 16 18 15
7 9 4 4 4 7 6 7 4 2 6 8 6 4 1 1 2 1 0 15 14 8 12 12 15 15 15 14 13 13 8 11 16 14 8 7 10 11 8 8 9 10 12 11 10 9 9 11 12 10 9 11 13 13 13 12 13 14 13 14 13 13 13 13 14 14 14 14 14 13 13 13 12 13 14 15 15 15 16 15 12 13 14 17 18 19
4 5 4 7 5 1 2 4 4 3 10 7 9 6 2 3 3 2 3 13 13 7 9 11 14 15 14 13 14 9 7 12 17 16 11 6 8 7 8 10 10 12 11 10 11 11 12 12 11 10 10 12 14 14 13 14 14 13 14 14 14 13 14 14 14 14 14 14 14 14 13 12 11 12 13 13 14 13 17 17 17 16 14 15 17 17
3 3 5 6 8 8 7 7 10 4 9 3 2 4 3 5 2 4 7 10 4 4 8 9 12 13 12 12 11 8 9 13 17 16 12 7 8 9 8 11 12 11 11 11 9 10 13 11 9 10 12 14 16 14 13 13 12 13 14 14 13 14 15 14 13 13 14 15 15 13 12 11 12 12 12 12 14 13 14 13 13 15 15 16 15 14
2 3 7 13 10 11 12 11 7 7 11 16 16 17 9 2 4 1 10 13 2 4 5 6 9 11 10 10 6 11 13 15 18 18 17 9 7 10 10 9 9 10 10 10 12 12 10 9 9 12 14 14 15 13 12 12 12 13 13 14 14 16 15 14 13 13 13 14 13 13 12 11 10 13 14 12 12 13 12 11 11 13 15 17 16 15
3 1 3 3 9 10 9 12 12 9 15 14 14 11 4 2 3 11 8 2 3 6 5 6 9 9 8 12 14 14 17 17 18 16 15 14 14 13 9 7 10 9 7 10 12 11 10 9 11 14 15 15 15 14 13 12 14 14 14 14 15 17 15 13 12 11 11 13 15 14 13 13 13 11 11 12 12 11 15 13 12 12 12 14 16 18
6 3 4 6 4 3 4 8 6 9 3 6 3 5 4 5 9 9 5 6 4 7 9 9 8 12 12 16 17 19 19 18 18 19 17 15 14 13 10 10 11 11 12 10 11 11 11 11 14 15 15 14 12 12 13 14 15 14 14 15 17 16 14 13 11 11 12 14 14 15 13 13 12 13 11 12 11 13 13 14 13 14 11 13 16 17
7 4 3 5 6 5 6 8 9 8 3 2 6 5 6 13 12 10 7 13 13 12 11 12 13 13 13 14 17 18 18 19 18 15 15 15 14 10 7 9 11 11 9 9 11 13 11 14 15 15 14 13 12 13 13 14 15 14 15 18 16 15 14 12 11 11 11 12 14 14 13 12 13 12 11 11 11 11 13 13 13 12 12 12 13 13
12 10 6 6 4 8 7 8 8 5 6 6 9 11 11 11 10 11 12 14 15 14 12 12 15 16 14 15 17 18 19 17 18 18 17 18 15 8 9 13 13 11 9 11 12 12 13 15 16 15 14 13 14 14 14 12 14 15 17 17 14 14 13 13 13 12 13 14 15 14 12 12 12 13 12 9 8 12 12 14 11 14 12 12 12 14
3 12 4 4 11 11 12 11 13 13 15 18 14 13 14 16 14 12 13 14 13 15 13 14 15 17 17 16 17 17 17 18 18 19 19 15 7 10 14 13 11 8 8 10 12 14 14 15 14 14 15 14 14 15 14 13 13 15 17 16 14 13 12 12 12 13 14 16 15 14 13 13 15 14 10 10 8 9 11 11 15 11 13 11 12 13
11 6 5 8 9 5 9 8 17 20 19 16 17 15 12 11 13 11 12 13 15 15 16 15 16 17 17 17 17 19 21 20 20 20 17 8 9 11 11 10 9 7 9 13 15 15 14 11 13 13 13 15 15 14 13 12 13 15 15 14 13 12 11 11 12 13 14 16 15 14 12 12 12 12 12 9 9 9 10 12 9 13 13 12 11 12
3 4 9 15 14 11 16 15 16 16 13 11 12 13 15 17 17 14 13 14 15 15 15 16 15 16 15 16 17 18 20 19 19 19 13 9 11 11 10 9 9 9 12 14 15 15 13 12 12 14 14 15 15 15 14 12 14 16 15 13 11 10 9 11 12 13 14 16 13 12 11 12 16 15 11 12 9 11 11 8 11 11 12 11 11 11
3 4 7 4 2 7 10 17 21 18 12 16 21 18 16 16 16 15 13 13 14 15 17 17 15 16 15 17 17 17 19 19 19 17 12 10 10 8 9 9 8 11 15 16 15 12 13 12 13 13 14 16 16 15 13 13 14 15 15 12 10 10 11 13 13 14 15 14 12 12 12 10 10 9 12 11 13 10 10 12 11 10 13 12 9 10
4 11 15 6 10 12 12 16 9 8 10 8 11 11 11 13 12 14 14 15 16 16 17 18 19 17 16 16 16 16 17 18 17 10 11 10 8 8 8 8 10 14 15 15 13 12 13 12 13 14 15 16 15 14 13 13 14 16 14 11 10 10 12 13 13 13 14 13 11 12 10 10 10 10 9 12 12 12 13 15 20 18 13 14 14 20
9 17 7 8 11 14 13 13 10 12 13 15 16 14 14 13 12 15 16 17 18 17 17 17 18 19 18 18 15 15 16 15 10 8 10 8 9 8 8 10 13 14 14 15 14 13 12 13 14 14 16 16 14 13 13 14 15 16 14 11 11 10 12 12 11 12 13 13 12 12 11 9 10 9 10 9 11 10 14 14 13 18 23 21 21 25
Wind_Direction
307 55 39 23 343 326 349 345 46 55 105 123 92 72 52 40 357 310 0 344 259 76 48 76 79 73 51 39 30 11 52 60 54 51 50 49 46 46 43 43 38 38 32 10 19 22 21 21 19 17 15 14 14 17 13 12 13 13 10 7 12 6 5 8 6 7 2 1 356 2 3 354 351 354 352 355 354 356 352 348 348 348 347 339 325 302
302 51 11 337 323 328 317 325 16 69 53 67 66 50 44 41 3 316 346 350 9 92 32 17 77 49 60 39 34 17 59 50 52 58 55 52 53 50 46 42 37 30 18 22 27 24 23 19 17 17 17 13 15 10 11 13 9 9 8 12 6 5 6 9 8 360 5 6 3 346 348 346 345 353 356 353 356 351 348 350 352 351 348 342 336 327
49 46 347 332 323 317 321 24 39 61 52 48 66 41 45 360 290 285 320 357 340 50 68 326 83 36 12 37 27 50 61 57 52 63 65 63 56 52 47 43 36 28 25 28 30 26 25 21 20 19 15 16 18 11 12 9 10 11 11 8 5 4 5 5 3 3 2 357 357 355 346 345 343 347 345 341 334 343 348 353 355 352 349 344 338 335
46 15 329 331 336 348 27 31 40 44 51 44 30 38 26 286 28 3 321 355 342 66 171 178 90 54 349 0 44 34 49 52 43 56 55 58 64 57 47 41 37 32 27 27 22 21 20 23 21 19 18 14 10 12 12 11 10 8 7 6 3 2 3 2 2 1 354 352 344 350 347 344 347 330 321 327 336 356 360 357 353 353 348 344 340 334
121 261 302 323 7 24 30 28 32 29 31 356 79 98 58 349 317 182 269 318 310 39 90 32 43 353 10 15 25 4 11 46 29 41 44 40 50 60 50 44 36 39 29 23 19 18 19 20 19 18 15 11 16 14 12 10 9 6 3 2 1 1 1 2 360 359 352 349 355 353 353 357 355 354 1 359 357 357 349 347 354 352 346 342 336 335
62 335 304 23 13 20 24 32 23 11 21 341 242 99 237 241 271 238 269 323 36 345 343 6 33 317 304 342 11 341 4 33 358 46 37 38 41 37 46 36 19 22 27 35 22 15 11 13 9 14 12 17 15 14 9 7 5 5 2 1 0 0 1 2 0 359 358 359 358 0 4 1 359 358 359 359 349 343 345 344 337 338 343 339 339 338
88 341 56 19 22 28 43 83 38 38 343 60 326 107 4 263 228 300 352 58 50 89 340 68 141 247 330 98 58 320 36 31 0 30 25 29 28 38 45 29 21 17 10 6 11 9 15 8 16 11 12 10 13 5 357 359 3 2 2 3 3 1 359 359 358 0 360 1 4 4 3 -0 356 347 344 341 338 335 331 333 336 334 336 340 339 337
20 353 8 18 30 24 20 27 356 29 28 0 244 28 350 156 171 182 116 117 205 295 297 33 82 146 275 287 258 282 69 16 14 0 10 14 22 37 35 22 17 14 15 9 3 357 357 4 14 10 356 2 359 347 350 358 357 359 358 359 0 1 360 358 357 359 3 1 359 359 359 357 353 350 337 337 335 332 332 333 335 334 335 336 339 337
76 336 17 18 18 25 18 309 291 350 185 243 308 0 307 256 222 162 142 167 198 117 289 339 355 79 260 263 323 30 57 353 5 347 347 354 13 23 22 8 7 9 13 16 2 348 350 353 353 352 354 344 343 348 351 352 346 347 350 354 355 358 357 356 357 359 359 1 358 355 353 351 347 342 339 333 332 333 335 335 336 337 336 335 337 340
326 103 53 112 41 7 294 296 266 288 5 282 305 322 274 153 142 159 101 101 344 69 313 340 326 116 283 265 328 337 84 358 287 290 309 311 334 0 352 350 346 350 3 2 356 336 334 335 338 330 332 345 335 327 336 338 340 342 347 355 356 355 354 351 355 357 356 357 356 355 351 348 342 342 338 338 336 337 336 334 336 336 335 336 335 336
262 287 174 95 45 311 287 279 218 277 229 291 305 37 1 53 29 36 53 71 57 35 256 270 298 185 284 247 193 127 180 190 259 302 292 311 358 350 324 307 323 337 343 347 346 345 338 319 333 336 343 321 326 329 334 333 330 327 340 342 353 346 347 348 350 352 353 353 353 352 348 343 341 340 338 339 338 337 338 338 334 335 333 333 331 331
349 344 37 293 21 299 191 326 309 305 276 351 13 17 31 340 9 28 347 30 88 279 253 227 312 177 147 291 266 241 275 191 164 170 261 258 331 319 306 300 300 319 330 333 349 343 345 350 351 355 351 334 322 328 332 325 320 325 322 333 342 337 340 339 341 347 347 346 345 345 343 340 337 337 336 336 334 334 332 331 330 329 328 329 328 329
14 9 298 322 309 27 344 56 311 352 357 18 22 28 86 278 36 270 10 357 235 190 182 205 9 37 256 211 170 183 209 240 225 206 208 191 59 311 300 296 288 302 322 335 327 325 329 333 339 352 346 343 334 329 325 325 326 325 326 335 337 330 325 325 327 335 334 338 339 336 336 335 332 332 331 329 327 328 326 326 325 328 328 327 328 330
286 296 349 337 15 41 52 72 332 5 353 5 30 19 62 31 36 266 274 237 312 285 269 343 345 220 233 295 204 160 205 200 223 265 315 142 134 345 298 293 300 312 310 303 304 300 306 316 328 336 336 337 332 326 324 322 329 330 327 329 329 318 317 315 320 319 323 325 324 328 328 327 327 326 326 326 323 322 319 319 318 320 321 320 321 322
27 341 330 7 6 337 52 91 143 181 322 311 269 104 158 145 158 251 233 269 234 247 290 295 90 239 74 208 175 179 171 194 349 21 54 60 281 289 286 295 307 316 305 290 297 292 299 306 313 316 324 327 327 321 322 322 322 328 327 326 321 316 317 319 317 319 318 313 312 318 319 321 322 320 319 318 316 317 318 317 314 313 314 314 316 316
251 240 258 249 262 14 9 320 120 104 61 278 140 96 55 323 140 167 206 180 283 339 325 332 190 217 150 262 197 189 141 24 5 36 48 17 342 337 336 333 330 301 292 294 294 300 312 311 310 321 325 322 317 315 315 315 313 316 312 309 302 308 320 323 322 322 318 313 308 309 313 313 316 316 313 311 311 310 310 310 313 311 310 310 309 311
16 308 265 320 350 36 354 316 353 135 74 269 57 39 231 188 109 39 5 29 59 53 257 206 318 310 305 23 155 88 94 5 15 16 25 354 332 333 335 325 325 302 283 290 318 327 327 328 326 320 314 314 316 317 316 310 305 303 306 307 313 331 330 326 323 320 317 313 311 310 308 309 311 311 311 310 308 308 306 307 307 307 305 306 307 308
112 274 314 39 303 300 322 200 255 18 121 58 55 245 92 78 118 125 236 330 56 137 264 31 218 304 22 250 284 19 47 356 6 351 348 325 336 346 325 318 307 294 287 307 320 320 316 321 322 313 303 303 305 307 312 313 311 311 309 317 328 327 328 322 320 317 316 314 311 310 309 307 304 303 303 303 304 304 304 305 306 305 308 308 307 308
97 341 294 342 253 284 339 59 10 318 22 94 149 159 92 303 317 320 92 355 332 313 287 301 301 254 207 238 182 245 91 340 340 327 346 329 334 325 308 305 308 314 328 326 321 325 330 321 320 311 307 313 320 321 316 312 314 313 321 327 324 323 319 315 314 312 310 308 305 305 305 304 303 300 298 298 297 300 300 302 304 305 303 304 307 307
11 180 298 300 35 298 338 53 117 305 334 19 18 20 339 102 160 45 204 181 119 262 15 289 43 233 206 223 170 220 181 155 305 320 290 278 278 295 303 310 312 310 297 305 318 314 310 317 323 320 316 318 320 320 320 321 324 331 335 333 328 323 321 318 314 310 308 306 302 300 300 301 299 297 297 297 299 300 298 297 300 304 304 304 304 306
304 105 254 280 312 20 328 0 139 320 308 331 28 338 356 16 216 107 21 130 179 197 191 275 312 272 263 208 153 188 166 159 235 272 272 282 292 303 302 308 298 288 292 294 294 308 316 316 313 309 311 314 315 315 319 328 334 330 331 329 323 318 314 309 305 302 299 301 299 299 300 300 302 301 301 299 298 296 294 295 298 300 299 299 301 302
53 11 229 319 350 11 227 233 190 235 181 196 147 88 201 54 19 23 280 21 55 103 238 163 276 253 266 185 142 170 179 199 248 237 280 311 322 318 311 307 292 282 284 299 311 306 303 300 300 303 310 316 320 319 328 336 338 329 324 315 311 310 308 305 301 296 296 294 293 294 296 298 298 299 299 300 300 298 295 295 298 299 299 299 298 300
134 160 77 293 225 268 293 297 330 284 119 185 123 84 109 103 102 100 151 279 357 246 127 158 287 283 252 270 152 141 148 313 303 340 333 321 317 318 318 307 307 318 319 313 304 299 295 292 294 295 311 328 329 323 327 321 316 313 309 308 307 306 304 301 296 293 293 294 296 295 295 297 298 298 298 299 299 296 297 298 299 297 294 295 297 297
71 77 22 271 293 287 306 326 342 28 86 42 5 45 69 65 149 176 174 184 177 299 311 303 230 247 285 299 9 332 227 269 332 346 318 317 315 314 310 313 311 315 309 302 301 295 295 297 304 332 341 334 329 319 315 310 306 303 306 310 312 311 309 305 297 293 295 299 297 296 297 297 297 297 298 298 297 295 296 297 295 293 290 290 293 296
31 273 130 341 350 337 344 345 1 338 51 77 314 333 80 104 83 153 98 77 226 212 197 139 241 267 268 221 258 286 329 334 321 312 310 310 307 290 286 292 291 293 298 300 300 298 298 314 333 333 332 332 324 314 308 305 306 311 315 317 315 312 309 304 298 296 299 296 295 297 299 298 298 298 298 297 296 294 294 294 291 289 287 289 291 291
116 205 91 62 350 329 317 307 285 295 306 301 215 25 141 64 352 3 290 15 203 272 173 196 256 246 254 325 320 316 311 308 302 296 303 286 273 280 299 299 296 297 292 295 294 300 311 316 324 333 331 327 316 304 302 307 315 319 318 316 314 310 309 303 297 297 295 293 296 299 299 298 298 298 297 295 294 293 292 291 289 286 285 286 287 289
175 291 142 164 162 215 238 219 240 25 354 297 284 278 276 269 250 205 161 196 232 229 219 235 246 285 282 277 284 286 288 290 298 299 297 290 275 280 281 285 287 287 288 284 291 297 304 324 330 325 323 319 307 302 311 318 320 319 316 313 311 308 305 301 296 294 293 293 297 298 297 297 296 295 295 294 294 293 291 288 286 283 283 285 285 286
64 305 246 183 221 238 279 283 256 245 245 254 273 280 267 237 191 196 188 232 121 48 271 225 235 246 270 289 284 288 293 289 288 294 291 278 279 283 286 284 280 276 278 290 298 306 315 321 322 323 321 318 314 316 317 320 317 316 315 311 309 308 303 296 293 293 290 293 295 295 295 295 296 295 295 295 294 292 290 287 285 283 284 286 286 285
138 225 263 144 256 244 264 264 275 269 231 246 262 269 271 258 231 229 236 238 229 227 252 249 258 287 281 283 285 287 288 290 291 287 266 259 274 284 289 282 284 295 303 303 305 312 317 320 320 319 319 317 317 319 319 318 318 315 311 307 306 305 300 295 294 293 292 293 294 295 296 296 297 297 295 295 294 293 291 288 286 286 287 287 285 283
74 251 242 192 264 272 280 284 286 277 276 275 271 268 251 242 243 235 248 245 225 241 251 267 273 268 270 273 280 284 285 279 275 273 285 290 281 278 276 290 298 300 302 305 307 308 310 314 316 315 314 314 315 316 318 318 316 313 310 308 307 304 301 300 301 299 295 293 295 298 299 299 298 297 296 296 296 294 293 291 289 289 289 289 287 285
106 273 155 236 297 283 261 261 270 274 294 279 277 275 268 257 258 251 252 259 250 255 257 261 266 272 266 262 271 270 268 280 301 285 275 281 287 290 291 290 292 296 300 303 304 304 310 312 313 311 309 311 314 315 316 314 312 310 307 306 307 305 303 308 305 295 291 295 300 301 301 300 299 299 298 298 298 298 296 295 294 293 292 290 288 287
124 259 28 148 294 286 150 228 274 315 291 266 272 273 265 245 243 253 234 230 200 234 247 258 263 262 272 262 240 242 269 265 267 275 284 285 284 283 285 289 291 293 292 290 291 302 311 313 307 306 306 308 310 312 313 312 310 308 306 306 304 301 301 304 297 290 292 298 301 303 302 301 300 300 301 303 304 304 301 299 297 294 293 292 290 289
189 184 318 9 299 282 273 138 319 324 308 294 265 243 232 198 197 247 262 239 222 210 248 240 250 260 285 301 302 284 253 248 253 263 271 275 273 274 276 281 284 284 280 277 293 306 305 300 297 294 300 305 307 307 306 306 307 305 304 303 299 299 300 297 289 287 294 300 303 303 303 302 302 303 305 307 307 305 302 299 297 295 294 293 292 290
191 209 248 153 238 251 156 30 29 354 312 258 235 181 151 194 202 234 267 265 239 184 236 238 264 281 290 290 283 283 288 282 265 249 241 257 275 280 277 275 276 276 277 283 297 296 293 290 287 292 296 298 298 301 304 305 303 300 299 298 298 298 295 290 288 294 300 303 303 304 303 303 304 305 306 308 308 307 304 302 299 297 294 293 290 287
199 207 226 173 257 279 66 343 302 223 242 250 275 229 207 233 230 238 258 264 265 256 257 265 270 275 272 270 270 277 281 284 266 251 267 266 260 265 272 274 268 267 276 292 291 290 285 282 286 294 298 297 299 302 304 302 299 297 296 295 296 294 293 291 295 301 303 304 304 304 303 304 305 306 307 308 307 305 302 301 300 299 298 297 293 293
213 209 230 234 219 262 149 168 276 235 245 292 286 277 269 247 250 264 269 256 256 249 253 259 261 263 268 271 276 275 276 275 280 262 260 269 258 258 262 261 258 259 278 281 283 280 280 280 285 290 289 291 297 301 300 298 298 296 294 295 292 293 291 295 300 301 303 303 303 302 302 303 305 305 305 306 304 302 304 307 309 309 312 307 299 292
208 168 171 269 153 238 187 206 235 319 315 304 302 326 132 184 294 292 294 287 253 248 231 254 266 270 271 272 269 272 274 286 284 273 252 249 253 245 244 247 243 260 268 273 271 273 267 278 289 289 287 291 298 300 298 296 296 295 297 296 294 293 295 299 302 303 303 301 300 301 302 303 303 304 305 305 305 305 306 306 305 305 311 307 302 293
202 192 194 184 250 176 253 282 287 277 262 278 236 262 306 160 131 201 100 291 284 233 239 241 253 258 262 266 268 268 286 300 284 279 274 244 235 242 246 247 258 268 271 275 280 276 286 292 290 285 286 295 296 292 292 294 296 298 297 295 295 294 295 298 300 301 301 300 300 299 300 299 301 302 303 305 303 303 301 301 299 303 310 307 303 300
230 213 224 202 249 26 246 239 240 253 257 220 263 255 273 159 127 110 356 282 279 258 234 219 238 246 250 256 263 271 284 273 279 284 293 253 243 228 240 254 264 270 277 280 279 285 288 287 281 282 289 292 293 294 294 295 297 297 295 295 295 295 294 296 298 300 301 300 299 298 296 298 299 299 300 298 296 297 301 305 306 305 301 301 301 296
175 204 195 237 224 225 245 248 256 223 270 236 209 284 203 141 89 43 316 271 250 192 224 221 232 245 252 248 251 252 246 270 277 285 292 257 225 235 249 263 268 276 277 279 281 282 284 282 286 291 293 294 293 295 295 294 293 292 293 293 294 293 293 295 296 297 297 297 297 295 294 295 297 298 296 294 294 294 296 299 300 300 300 298 298 294
238 256 193 222 227 239 237 260 257 259 252 261 265 267 290 152 90 175 239 258 256 219 228 211 234 240 247 260 244 264 255 258 273 282 290 276 261 265 260 260 267 266 272 278 278 277 279 281 280 285 289 292 294 296 294 292 292 290 289 291 292 290 292 294 294 294 294 295 294 293 293 295 294 297 296 290 289 295 292 295 296 299 299 298 298 298
263 134 273 175 231 222 235 249 254 270 264 263 255 242 162 94 220 227 238 239 269 266 238 218 245 252 252 260 273 269 274 274 275 280 281 273 264 266 266 268 273 269 267 274 278 288 290 289 290 290 292 292 295 296 293 289 287 289 291 291 288 289 294 295 292 290 293 294 295 295 296 297 296 293 289 292 293 294 297 297 292 288 290 294 296 298
194 155 218 198 215 230 191 249 286 277 266 195 200 40 160 171 233 237 286 291 231 266 277 269 252 270 276 282 274 273 274 275 275 275 269 266 265 267 267 269 271 276 281 283 299 295 290 292 292 291 290 294 295 293 291 290 288 289 290 288 288 293 295 295 292 291 292 293 293 295 295 297 295 294 296 294 294 298 297 298 297 293 289 287 290 296
159 226 208 224 164 210 203 202 218 219 223 235 138 202 198 215 248 265 275 284 281 277 276 279 277 275 273 264 273 273 272 277 278 271 266 265 265 263 268 281 282 283 293 308 296 291 291 289 288 289 293 296 297 293 290 290 292 292 290 287 290 295 297 296 292 291 289 288 291 293 296 295 294 291 292 292 299 302 297 295 293 290 294 303 305 306
170 208 173 214 194 189 213 224 245 253 236 225 193 245 250 252 264 273 278 275 283 282 275 278 281 282 278 276 275 278 283 278 274 271 270 270 269 280 296 292 292 293 294 290 289 288 287 287 290 294 297 297 295 293 292 291 291 291 289 289 295 297 299 297 295 292 291 291 291 293 294 296 292 293 293 293 298 298 298 294 296 304 307 304 295 294
189 212 216 262 242 240 245 243 267 267 264 266 258 252 261 269 270 266 264 272 270 272 276 276 280 282 283 282 283 283 278 280 279 276 273 274 298 293 287 285 285 285 287 281 284 290 293 293 293 297 297 297 294 294 294 293 291 289 287 293 297 299 297 294 289 289 289 291 292 293 295 296 296 294 289 293 293 289 292 298 302 298 296 296 295 294
225 215 226 234 255 274 262 193 239 250 257 262 267 273 272 267 266 267 271 267 271 276 278 276 276 280 281 283 280 279 280 280 279 279 280 287 272 271 275 280 280 280 291 296 297 296 293 294 298 298 296 296 295 293 293 293 292 287 290 293 298 299 294 287 285 287 288 289 292 293 293 294 293 297 298 295 293 289 291 291 284 288 292 292 288 293
307 185 222 242 244 226 258 263 262 256 257 270 269 274 276 274 271 267 263 267 271 274 274 277 281 281 282 281 276 276 277 279 280 279 280 274 277 280 284 285 289 301 300 295 294 292 292 296 297 298 297 294 294 294 295 294 292 291 293 298 300 297 291 286 288 288 288 288 290 289 289 290 291 293 293 295 296 296 293 277 278 282 282 291 298 300
182 104 243 190 208 252 271 268 262 274 277 266 266 264 261 265 272 276 273 274 275 278 280 280 274 272 272 271 274 275 278 277 274 272 270 273 279 284 284 288 302 304 298 293 291 293 297 301 299 294 293 292 293 295 297 294 293 293 296 303 305 301 295 292 291 289 287 287 287 284 287 282 283 287 294 295 296 289 282 292 293 286 282 274 273 272
189 238 248 273 268 253 244 258 272 290 278 263 255 253 260 266 269 272 277 277 276 277 277 280 282 278 274 271 271 270 271 275 276 281 276 277 281 288 294 299 301 297 294 291 293 297 300 298 295 296 295 293 294 296 297 296 295 295 299 306 303 299 294 293 293 291 289 289 286 285 286 286 287 288 291 294 296 297 291 283 285 285 283 284 279 286
215 245 239 234 243 256 254 258 249 249 269 267 272 279 277 276 277 279 277 278 280 279 280 282 285 287 285 283 278 276 272 274 283 271 277 291 295 293 290 295 298 297 294 297 298 299 298 298 296 295 293 292 295 298 300 299 296 296 302 307 302 300 294 292 291 289 288 289 288 289 290 290 293 293 295 293 296 294 296 298 287 281 283 287 296 298